This demonstration page uses our WeatherBlox Daily Observations layout. Learn more.

Left ArrowRight Arrow

38.20091, -84.87328

Hourly Observations for January 25, 2016

Temp ( °F °C ) Dew Point ( °F °C ) Humidity (%) Winds ( mph kmh ) Pressure ( in mb ) Visibility ( mi km ) Precip ( " mm )
12:53 am 00:53 Clear 25 -3.9 20 -6.7 81 81 S 3 6 30.10 1019 9 14 0.00 0.00
1:53 am 01:53 Clear 23 -5 18 -7.8 81 81 Calm 30.09 1019 8 13 0.00 0.00
2:53 am 02:53 Clear 23 -5 19 -7.2 85 85 SSE 3 6 30.10 1019 7 11 0.00 0.00
3:53 am 03:53 Clear with Mist and Fog 22 -5.6 19 -7.2 89 89 Calm 30.10 1019 6 10 0.00 0.00
4:53 am 04:53 Clear 22 -5.6 18 -7.8 85 85 S 3 6 30.11 1020 8 13 0.00 0.00
5:53 am 05:53 Clear 24 -4.4 20 -6.7 84 84 SSE 5 7 30.11 1020 9 14 0.00 0.00
6:53 am 06:53 Clear 22 -5.6 19 -7.2 89 89 SSE 3 6 30.11 1020 8 13 0.00 0.00
7:53 am 07:53 Sunny 24 -4.4 20 -6.7 84 84 S 5 7 30.12 1020 9 14 0.00 0.00
8:53 am 08:53 Sunny 27 -2.8 20 -6.7 75 75 SSE 5 7 30.12 1020 10 16 0.00 0.00
9:53 am 09:53 Sunny 33 0.6 21 -6.1 61 61 S 10 17 30.10 1019 10 16 0.00 0.00
10:53 am 10:53 Sunny 39 3.9 22 -5.6 50 50 S 13 20 30.10 1019 10 16 0.00 0.00
11:53 am 11:53 Sunny 44 6.7 24 -4.4 45 45 S 10 17 30.06 1018 10 16 0.00 0.00
12:53 pm 12:53 Mostly Sunny 46 7.8 26 -3.3 46 46 SSE 8 13 30.04 1017 10 16 0.00 0.00
1:18 pm 13:18 Mostly Cloudy 46 7.8 26 -3.3 46 46 S 10 17 30.03 1017 10 16 0.00 0.00
1:44 pm 13:44 Partly Cloudy 47 8.3 28 -2.2 48 48 S 10 17 30.03 1017 10 16 0.00 0.00
1:53 pm 13:53 Mostly Sunny 47 8.3 28 -2.2 48 48 S 9 15 30.00 1016 10 16 0.00 0.00
2:53 pm 14:53 Sunny 48 8.9 29 -1.7 48 48 SSE 13 20 29.99 1016 10 16 0.00 0.00
3:53 pm 15:53 Mostly Cloudy 48 8.9 30 -1.1 50 50 S 12 19 29.97 1015 10 16 0.00 0.00
4:53 pm 16:53 Cloudy 47 8.3 30 -1.1 52 52 SSE 13 20 29.96 1014 10 16 0.00 0.00
5:53 pm 17:53 Cloudy 46 7.8 30 -1.1 54 54 S 9 15 29.95 1014 10 16 0.00 0.00
6:53 pm 18:53 Cloudy 46 7.8 30 -1.1 54 54 S 12 19 29.96 1015 10 16 0.00 0.00
7:53 pm 19:53 Cloudy 46 7.8 30 -1.1 54 54 S 13 20 29.96 1014 10 16 0.00 0.00
8:53 pm 20:53 Cloudy 46 7.8 31 -0.6 56 56 S 13 20 29.94 1014 10 16 0.00 0.00
9:53 pm 21:53 Cloudy 47 8.3 32 0 56 56 S 13 20 29.94 1014 10 16 0.00 0.00
10:53 pm 22:53 Cloudy 46 7.8 33 0.6 61 61 S 12 19 29.93 1013 10 16 0.00 0.00
11:53 pm 23:53 Cloudy 48 8.9 38 3.3 68 68 SSW 14 22 29.94 1014 10 16 0.00 0.00

Powered by AerisWeather